This is the latest recevied weather packets stored in our database for station/object K2MRS. If no packets are shown the sender has not sent any weather packets the latest 10 day(s).
| Time | Temp. | Humidity | Pressure | Rain* | Wind** | Luminosity | Snow |
|---|---|---|---|---|---|---|---|
| 1777974036 | 10.56° C | 93% | 1015.4 hPa | 0.51 mm | - | 0 W/m² | - |
| 1777973737 | 10.56° C | 93% | 1015.5 hPa | 0.51 mm | - | 0 W/m² | - |
| 1777973436 | 10.56° C | 93% | 1015.5 hPa | 0.76 mm | - | 0 W/m² | - |
| 1777973264 | 10.56° C | 93% | 1015.6 hPa | 1.02 mm | - | 0 W/m² | - |
| 1777972834 | 10.56° C | 93% | 1015.5 hPa | 1.02 mm | - | 0 W/m² | - |
| 1777972535 | 10.56° C | 93% | 1015.4 hPa | 1.27 mm | - | 0 W/m² | - |
| 1777972234 | 10.56° C | 93% | 1015.3 hPa | 1.52 mm | - | 0 W/m² | - |
| 1777971934 | 10.56° C | 93% | 1015.5 hPa | 1.52 mm | - | 0 W/m² | - |
| 1777971634 | 10.56° C | 93% | 1015.5 hPa | 1.52 mm | - | 0 W/m² | - |
| 1777971335 | 10.56° C | 92% | 1015.7 hPa | 1.78 mm | - | 0 W/m² | - |
| 1777971034 | 10.56° C | 92% | 1015.8 hPa | 1.52 mm | - | 0 W/m² | - |
| 1777970735 | 10.56° C | 92% | 1015.8 hPa | 1.52 mm | - | 0 W/m² | - |
| 1777970434 | 10.56° C | 92% | 1015.9 hPa | 1.78 mm | - | 0 W/m² | - |
| 1777970135 | 10.56° C | 92% | 1015.8 hPa | 2.03 mm | - | 0 W/m² | - |
| 1777969835 | 10.56° C | 92% | 1015.8 hPa | 1.78 mm | - | 0 W/m² | - |
| 1777969535 | 10.56° C | 92% | 1015.7 hPa | 1.78 mm | - | 0 W/m² | - |
| 1777969234 | 10.56° C | 92% | 1015.6 hPa | 1.78 mm | - | 0 W/m² | - |
| 1777968934 | 10.56° C | 92% | 1015.6 hPa | 1.78 mm | - | 0 W/m² | - |
| 1777968634 | 10.56° C | 92% | 1015.6 hPa | 1.52 mm | - | 0 W/m² | - |
| 1777968334 | 10.56° C | 92% | 1015.7 hPa | 1.52 mm | - | 0 W/m² | - |
| 1777968034 | 10.56° C | 92% | 1015.8 hPa | 1.52 mm | - | 0 W/m² | - |
| 1777967862 | 10.56° C | 92% | 1015.8 hPa | 1.52 mm | - | 0 W/m² | - |
| 1777967435 | 10.56° C | 92% | 1015.9 hPa | 1.52 mm | - | 0 W/m² | - |
| 1777967134 | 10.56° C | 92% | 1016 hPa | 1.52 mm | - | 0 W/m² | - |
| 1777966961 | 10.56° C | 92% | 1015.9 hPa | 1.27 mm | - | 0 W/m² | - |
* Rain latest hour (hover to see other rain measurements)
** Current wind speed in m/s (hover to see current wind gust speed)